Powrót do katalogu

KUIPER-00430

AktywnyŁącznośćLEO
NORAD 68935·PAYLOAD·🇺🇸 United States

Wystrzelony Apr 30, 2026 z Guiana Space Centre

Loading…

Następne Przeloty (najbliższe 24 godziny)

TLE

ŚwieżeSource: CelesTrak SupGP

Epoka: Sep 15, 2026, 04:40 UTC

1 68935C 26098S   26258.19454861 -.00011952  00000+0 -15645-2 0  2587
2 68935  51.9043  22.5467 0000658 105.0933 125.9972 14.79942725    17

Śledź KUIPER-00430 w czasie rzeczywistym z AllMySat

Download on the App Store